Home > Weather > Incheon > Past weeks

Flag for South Korea Past Weather in Incheon, South Korea — Yesterday and Last 2 Weeks

Now
86 °F

Broken clouds.


Feels Like: 86 °F
Forecast: 76 / 88 °F
Wind: 8 mph from Northwest

Location: Incheon International Airport

Current Time: Aug 24, 2016 at 5:55:16 PM

Latest Report: Aug 24, 2016 at 5:30 PM


Visibility: N/A

Pressure: 29.71 "Hg

Humidity: 43%

Dew Point: 61 °F

Location of IncheonLocation

Past Weather in Incheon — Graph

°F

Incheon Temperature Yesterday

Maximum temperature yesterday: 90 °F (at 1:00 PM)
Minimum temperature yesterday: 79 °F (at 2:30 AM)
Average temperature yesterday: 83 °F

High & Low Weather Summary for the Past Weeks

 TemperatureHumidityPressure
High93 °F (Aug 21, 1:00 PM)89% (Aug 10, 1:30 AM)29.86 "Hg (Aug 10, 1:30 AM)
Low77 °F (Aug 10, 1:30 AM)20% (Aug 21, 1:00 PM)29.53 "Hg (Aug 16, 4:00 PM)
Average83 °F68%29.70 "Hg
* Reported Aug 9 4:00 PM — Aug 24 4:30 PM, Incheon, Weather by CustomWeather, © 2016

Note: Actual official high and low records may vary slightly from our data, if they occured in-between our weather recording intervals... More about our weather records

Advertising

Incheon Weather History for the Previous 24 Hours

Scroll right to see more
 ConditionsComfort  
Time TempWeatherWind HumidityBarometerVisibility
4:30 PM
Wed, Aug 24
90 °FScattered clouds.10 mph38%29.71 "HgN/A
4:00 PM90 °FScattered clouds.10 mph38%29.71 "HgN/A
3:30 PM90 °FScattered clouds.13 mph33%29.71 "HgN/A
3:00 PM90 °FScattered clouds.8 mph36%29.71 "HgN/A
2:30 PM88 °FBroken clouds.9 mph40%29.71 "HgN/A
2:00 PM90 °FBroken clouds.8 mph38%29.74 "HgN/A
1:30 PM86 °FBroken clouds.6 mph52%29.74 "HgN/A
1:00 PM86 °FBroken clouds.10 mph55%29.74 "HgN/A
12:30 PM88 °FBroken clouds.5 mph52%29.74 "HgN/A
12:00 PM86 °FBroken clouds.3 mph55%29.74 "HgN/A
11:30 AM84 °FBroken clouds.6 mph62%29.74 "HgN/A
11:00 AM84 °FBroken clouds.6 mph62%29.74 "HgN/A
10:30 AM84 °FBroken clouds.6 mph62%29.77 "HgN/A
10:00 AM82 °FBroken clouds.9 mph66%29.77 "Hg5 mi
9:30 AM84 °FBroken clouds.8 mph62%29.77 "Hg5 mi
9:00 AM84 °FBroken clouds.8 mph66%29.77 "Hg5 mi
8:30 AM82 °FBroken clouds.6 mph70%29.77 "HgN/A
8:00 AM81 °FBroken clouds.7 mph74%29.74 "HgN/A
7:30 AM81 °FBroken clouds.5 mph79%29.74 "HgN/A
7:00 AM81 °FBroken clouds.3 mph74%29.74 "HgN/A
6:30 AM79 °FPassing clouds.1 mph79%29.74 "HgN/A
6:00 AM79 °FPassing clouds.1 mph79%29.74 "HgN/A
5:30 AM79 °FPassing clouds.1 mph79%29.71 "HgN/A
5:00 AM79 °FPassing clouds.2 mph79%29.71 "HgN/A
4:30 AM79 °FPassing clouds.3 mph79%29.71 "HgN/A
4:00 AM79 °FPassing clouds.3 mph79%29.71 "HgN/A
3:30 AM79 °FPassing clouds.3 mph79%29.71 "HgN/A
3:00 AM79 °FPassing clouds.3 mph79%29.71 "HgN/A
2:30 AM79 °FPassing clouds.3 mph79%29.71 "HgN/A
2:00 AM79 °FPassing clouds.3 mph79%29.71 "HgN/A
1:30 AM79 °FClear.3 mph79%29.71 "Hg10 mi
1:00 AM79 °FPassing clouds.3 mph79%29.71 "HgN/A
12:30 AM79 °FPassing clouds.5 mph79%29.71 "HgN/A
12:00 AM79 °FPassing clouds.6 mph79%29.71 "HgN/A
11:30 PM
Tue, Aug 23
79 °FPassing clouds.9 mph84%29.71 "HgN/A
11:00 PM81 °FPassing clouds.9 mph74%29.71 "HgN/A
10:30 PM81 °FClear.2 mph74%29.71 "Hg10 mi
10:00 PM82 °FClear.5 mph62%29.71 "Hg10 mi
9:30 PM82 °FClear.2 mph62%29.71 "Hg10 mi
9:00 PM82 °FPassing clouds.3 mph62%29.71 "HgN/A
8:30 PM82 °FClear.5 mph62%29.71 "Hg10 mi
8:00 PM82 °FSunny.3 mph62%29.68 "Hg10 mi
7:30 PM82 °FSunny.3 mph62%29.68 "Hg10 mi
7:00 PM82 °FPassing clouds.6 mph62%29.68 "HgN/A
6:30 PM84 °FPassing clouds.6 mph55%29.68 "HgN/A
6:00 PM86 °FScattered clouds.12 mph55%29.68 "HgN/A
5:30 PM86 °FScattered clouds.14 mph55%29.68 "HgN/A
5:00 PM88 °FBroken clouds.9 mph52%29.68 "Hg5 mi
Weather by CustomWeather, © 2016

See weather overviewHow to use our weather pages